Location: Auckland
(36.8670°S, 174.7670°E)
Time: 18:36:24
(UTC+12:00)

A-11 Canister half - Pass Details

Date: 30 July 2019
Orbit: 1526 x 1683 km, 47.3° (Epoch: 23 August)

Event Time Altitude Azimuth Distance (km) Brightness Sun altitude
Rises 10:21:36 0° 248° (WSW) 4,721 11.1 27.1°
Reaches altitude 10° 10:24:49 10° 242° (WSW) 3,753 10.6 27.4°
Maximum altitude 10:33:59 48° 169° (SSE) 1,990 9.6 28.4°
Drops below altitude 10° 10:43:24 10° 95° (E) 3,862 11.5 29.3°
Sets 10:46:46 0° 89° (E) 4,868 12.0 29.6°
